Location: Bessat
(45.8735°N, 1.9924°E)
Time: 20:47:12
(UTC+00:00)

Milstar 3 - Pass Details

Date: 11 May 2021
Orbit: 1089 x 5155 km, 28.3° (Epoch: 08 May)

Event Time Altitude Azimuth Distance (km) Brightness Sun altitude
Rises 21:55:32 0° 249° (WSW) 6,613 6.9 -21.1°
Reaches altitude 10° 22:01:22 10° 239° (WSW) 4,899 6.1 -21.6°
Maximum altitude 22:10:46 27° 188° (S) 2,716 4.3 -22.3°
Enters shadow 22:10:46 27° 188° (S) 2,715 4.3 -22.3°
